Regional Weather Roundup
Issued by NWS

Home | Current Version | Previous Version | Graphics & Text | Print | Product List | Glossary On
Versions: 1 2 3 4 5 6 7 8 9 10 11 12 13 14 15 16 17 18 19 20 21 22 23 24 25 26 27 28 29 30 31 32 33 34 35 36 37 38 39 40 41 42 43 44 45 46 47 48 49 50
000
ASUS43 KTOP 042259
RWRKS

WEATHER ROUNDUP FOR KANSAS
NATIONAL WEATHER SERVICE GOODLAND KS
500 PM CST SUN DEC 04 2016

NOTE:  "FAIR" INDICATES FEW OR NO CLOUDS BELOW 12,000 FEET WITH NO
SIGNIFICANT WEATHER AND/OR OBSTRUCTIONS TO VISIBILITY.

KSZ001>006-013>018-027>032-041>047-050000-
NORTHWEST KANSAS

CITY           SKY/WX    TMP DP  RH WIND       PRES   REMARKS
GOODLAND       CLEAR     46  13  26 S12       29.88F
HAYS           CLEAR     46  27  47 SW8       29.96R
HILL CITY      CLEAR     48  19  31 W7        29.93S
RUSSELL        CLEAR     46  28  49 SW7       29.95R
$$

KSZ061>065-074>080-084>089-050000-
SOUTHWEST KANSAS

CITY           SKY/WX    TMP DP  RH WIND       PRES   REMARKS
DODGE CITY     CLEAR     47  23  38 SW8       30.00S
ELKHART          N/A     47  19  33 S12         N/A
GARDEN CITY    CLEAR     46  18  32 S8        29.96F
GREAT BEND     CLEAR     47  30  51 SW7       29.99R
LIBERAL        CLEAR     46  21  36 S8        30.01S
$$

KSZ066>073-081>083-090>101-050000-
SOUTHEAST KANSAS

CITY           SKY/WX    TMP DP  RH WIND       PRES   REMARKS
CHANUTE        CLEAR     45  36  70 W3        30.02S
COFFEYVILLE    CLEAR     49  39  68 SE3       30.03F
HUTCHINSON     CLEAR     49  32  52 SW6       30.00R
MEDICINE LODGE   N/A     52  24  33 CALM      30.00F
NEWTON         CLEAR     46  36  68 SW7       30.00F
PARSONS        CLEAR     48  39  71 CALM      30.03F
WICHITA INTL   CLEAR     47  35  63 S5        30.01R
WICHITA JABRA  CLEAR     46  36  68 SW6       30.01S
WINFIELD       CLEAR     44  38  79 S6        30.03F
$$

KSZ007>012-019>026-033>040-048>060-102>105-050000-
NORTHEAST KANSAS

CITY           SKY/WX    TMP DP  RH WIND       PRES   REMARKS
CONCORDIA      CLEAR     41  34  76 SW6       29.95S
EMPORIA        CLEAR     44  35  70 W3        30.00S
LAWRENCE       MOCLDY    37  35  92 SW6       30.01R
MANHATTAN      CLEAR     41  36  82 SW5       29.99R
OLATHE IND     CLEAR     40  36  86 SW6       30.01R
OLATHE EXE     PTCLDY    41  35  79 W5        30.00R
SALINA         CLEAR     45  35  68 S7        29.98S
TOPEKA BILLARD CLEAR     38  34  85 VRB5      30.01R
TOPEKA FORBES  CLEAR     38  34  85 SW3       30.00F
$$



USA.gov is the U.S. government's official web portal to all federal, state and local government web resources and services.